Regional Weather Roundup
Issued by NWS

Home | Current Version | Previous Version | Text Only | Print | Product List | Glossary On
Versions: 1 2 3 4 5 6 7 8 9 10 11 12 13 14 15 16 17 18 19 20 21 22 23 24 25 26 27 28 29 30 31 32 33 34 35 36 37 38 39 40 41 42 43 44 45 46 47 48 49 50
000
ASUS44 KBMX 180710
RWRAL

ALABAMA REGIONAL WEATHER ROUNDUP
NATIONAL WEATHER SERVICE BIRMINGHAM AL
200 AM CDT SUN AUG 18 2019

NOTE: "FAIR" INDICATES FEW OR NO CLOUDS BELOW 12,000 FEET
WITH NO SIGNIFICANT WEATHER AND/OR OBSTRUCTIONS TO VISIBILITY.

THE REMARK "TC" DENOTES TEMPERATURE IN DEGREES CELSIUS.

ALZ001>011-014-016>018-020-180800-
NORTH ALABAMA

CITY           SKY/WX    TMP DP  RH WIND       PRES   REMARKS
MUSCLE SHOALS  FAIR      73  70  90 CALM      29.96F
HUNTSVILLE     FAIR      74  67  78 CALM      29.96F
DECATUR        FAIR      68  66  93 N3        29.97F
HALEYVILLE     FAIR      69  67  93 E3        30.00F
GADSDEN        FAIR      69  69 100 CALM      29.98F
$$

ALZ012-013-022-023-030>036-040>044-180800-
WEST CENTRAL ALABAMA

CITY           SKY/WX    TMP DP  RH WIND       PRES   REMARKS
TUSCALOOSA     FAIR      74  70  87 CALM      29.94F
DEMOPOLIS      FAIR      73  68  86 CALM      29.95F
$$

ALZ015-024>026-033>036-041>044-180800-
CENTRAL ALABAMA

CITY           SKY/WX    TMP DP  RH WIND       PRES   REMARKS
BIRMINGHAM     FAIR      77  62  59 CALM      29.98F
MONTGOMERY     FAIR      78  72  81 S7        29.98F
SHELBY CO ARPT FAIR      77  63  61 S6        29.97F
MAXWELL AFB    FAIR      78  73  86 S3        29.97F
GREENVILLE     FAIR      76  70  82 S3        29.98F
SELMA            N/A     77  72  83 S10       29.96S
PRATTVILLE     FAIR      73  72  97 CALM      29.98S
BESSEMER       FAIR      78  63  59 SE6       29.98F
TALLADEGA      FAIR      69  67  93 E3          N/A
PELL CITY      SUNNY     68  68 100 CALM      29.98S
MARION         FAIR      74  70  89 S7        29.95F
SYLACAUGA      FAIR      76  67  71 CALM      29.99S
$$

ALZ019-021-028-029-037-038-045>048-180800-
EAST CENTRAL ALABAMA

CITY           SKY/WX    TMP DP  RH WIND       PRES   REMARKS
ANNISTON       FAIR      72  66  81 N3        29.98F
ALEXANDER CITY FAIR      75  71  87 CALM      30.00F
AUBURN         CLOUDY    76  73  91 S9        30.03S
$$

ALZ051>064-180800-
SOUTHWEST ALABAMA

CITY           SKY/WX    TMP DP  RH WIND       PRES   REMARKS
MOBILE         FAIR      79  77  94 W3        29.96F
BROOKLEY FIELD FAIR      81  78  91 NW3       29.97F
EVERGREEN      FAIR      74  70  87 CALM      29.99S
$$

ALZ049-050-065>069-180800-
SOUTHEAST ALABAMA

CITY           SKY/WX    TMP DP  RH WIND       PRES   REMARKS
DOTHAN         MOCLDY    76  73  91 SE6       30.03S
OZARK          FAIR      75  73  93 E3        29.98F
TROY           FAIR      74  74 100 CALM      30.00F
EUFAULA        NOT AVBL
$$



USA.gov is the U.S. government's official web portal to all federal, state and local government web resources and services.